Abakan, Russia

7:01 PM +07 on November 13, 2019 (GMT +0700)
Abakan

Weather History for UNAA - September, 2019

Change the Weather History Date:

Sunday, September 1, 2019

  Actual Average Record
Temperature  
Mean Temperature 67 °F -  
Max Temperature 77 °F - - ()
Min Temperature 55 °F - - ()
Cooling Degree Days 2    
Growing Degree Days 17 (Base 50)    
Moisture  
Dew Point 55 °F    
Average Humidity 72    
Maximum Humidity 94    
Minimum Humidity 32    
Precipitation  
Precipitation 0.00 in - - ()
Sea Level Pressure  
Sea Level Pressure 29.81 in    
Wind  
Wind Speed 6 mph ()    
Max Wind Speed 13 mph    
Max Gust Speed 20 mph    
Visibility 6.0 miles    
Events Rain    
T = Trace of Precipitation, MM = Missing Value Source: Averaged Metar Reports

Daily Weather History Graph

Daily Weather History Graph

Search for Another Location

Airport or City:

Astronomy

Sep. 01, 2019 Rise Set
Actual Time 6:02 AM +07 7:46 PM +07
Civil Twilight 5:25 AM +07 8:23 PM +07
Nautical Twilight 4:38 AM +07 9:08 PM +07
Astronomical Twilight 3:46 AM +07 10:00 PM +07
Moon 8:05 AM +07 (9/1) 8:59 PM +07 (9/1)
Length of Visible Light 14h 57m
Length of Day
13h 43m
Waxing Crescent, 5% of the Moon is Illuminated
Sep 1
Waxing Crescent
Sep 6
First Quarter
Sep 14
Full
Sep 22
Last Quarter
Sep 29
New

Hourly Weather History & Observations

Time (+07) Temp. Dew Point Humidity Pressure Visibility Wind Dir Wind Speed Gust Speed Precip Events Conditions
12:00 AM 60.8 °F 59.0 °F 94% 29.71 in - WNW 4.5 mph - N/A   Clear
12:30 AM 60.8 °F 59.0 °F 94% 29.74 in - West 8.9 mph - N/A   Clear
1:00 AM 60.8 °F 59.0 °F 94% 29.71 in - ENE 4.5 mph - N/A   Clear
1:30 AM 62.6 °F 60.8 °F 94% 29.68 in - East 11.2 mph - N/A   Clear
2:00 AM 62.6 °F 60.8 °F 94% 29.68 in - East 2.2 mph - N/A   Clear
2:30 AM 62.6 °F 60.8 °F 94% 29.68 in - West 4.5 mph - N/A   Clear
3:00 AM 62.6 °F 60.8 °F 94% 29.68 in 6.2 mi WSW 6.7 mph 20.1 mph N/A Rain Light Rain Showers
3:30 AM 62.6 °F 60.8 °F 94% 29.74 in 5.6 mi South 8.9 mph - N/A Rain Light Rain Showers
4:00 AM 62.6 °F 60.8 °F 94% 29.77 in 5.6 mi South 8.9 mph - N/A Rain Light Rain Showers
4:30 AM 62.6 °F 60.8 °F 94% 29.77 in 5.6 mi South 8.9 mph - N/A Rain Light Rain Showers
5:00 AM 64.4 °F 60.8 °F 88% 29.77 in 5.6 mi South 11.2 mph - N/A Rain Light Rain Showers
5:30 AM 62.6 °F 59.0 °F 88% 29.77 in 5.6 mi South 6.7 mph - N/A Rain Light Rain Showers
6:00 AM 62.6 °F 59.0 °F 88% 29.74 in 6.2 mi ESE 4.5 mph - N/A Rain Light Rain Showers
6:30 AM 62.6 °F 59.0 °F 88% 29.71 in 6.2 mi ENE 6.7 mph - N/A   Mostly Cloudy
7:00 AM 62.6 °F 59.0 °F 88% 29.71 in 6.2 mi NNE 2.2 mph - N/A   Scattered Clouds
7:30 AM 62.6 °F 60.8 °F 94% 29.77 in 6.2 mi WSW 11.2 mph - N/A   Scattered Clouds
8:00 AM 62.6 °F 60.8 °F 94% 29.77 in 6.2 mi WSW 6.7 mph - N/A   Scattered Clouds
8:30 AM 62.6 °F 60.8 °F 94% 29.80 in 6.2 mi WSW 4.5 mph - N/A   Scattered Clouds
9:00 AM 64.4 °F 60.8 °F 88% 29.80 in 6.2 mi East 2.2 mph - N/A   Scattered Clouds
9:30 AM 66.2 °F 60.8 °F 83% 29.83 in 6.2 mi SE 2.2 mph - N/A   Scattered Clouds
10:00 AM 66.2 °F 60.8 °F 83% 29.83 in 6.2 mi South 2.2 mph - N/A   Scattered Clouds
10:30 AM 66.2 °F 62.6 °F 88% 29.83 in 6.2 mi SSW 4.5 mph - N/A Rain Light Rain Showers
11:00 AM 69.8 °F 62.6 °F 78% 29.83 in 6.2 mi SE 4.5 mph - N/A   Scattered Clouds
11:30 AM 71.6 °F 57.2 °F 60% 29.83 in 6.2 mi West 4.5 mph - N/A   Scattered Clouds
12:00 PM 71.6 °F 55.4 °F 57% 29.83 in 6.2 mi WSW 4.5 mph - N/A   Scattered Clouds
12:30 PM 73.4 °F 50.0 °F 44% 29.86 in - WSW 13.4 mph - N/A   Clear
1:00 PM 73.4 °F 50.0 °F 44% 29.86 in - WSW 11.2 mph - N/A   Clear
1:30 PM 75.2 °F 50.0 °F 41% 29.86 in - WSW 11.2 mph - N/A   Clear
2:00 PM 75.2 °F 50.0 °F 41% 29.86 in - SW 8.9 mph - N/A   Clear
2:30 PM 75.2 °F 48.2 °F 38% 29.86 in - SW 8.9 mph - N/A   Clear
3:00 PM 75.2 °F 50.0 °F 41% 29.86 in - SSW 11.2 mph - N/A   Clear
4:00 PM 75.2 °F 46.4 °F 36% 29.86 in - WSW 8.9 mph - N/A   Clear
4:30 PM 77.0 °F 44.6 °F 32% 29.86 in - WSW 8.9 mph - N/A   Clear
5:00 PM 75.2 °F 46.4 °F 36% 29.86 in - WSW 8.9 mph - N/A   Clear
5:30 PM 75.2 °F 46.4 °F 36% 29.86 in - West 6.7 mph - N/A   Clear
6:00 PM 75.2 °F 44.6 °F 34% 29.86 in - WSW 4.5 mph - N/A   Clear
6:30 PM 73.4 °F 44.6 °F 36% 29.86 in - WSW 4.5 mph - N/A   Clear
7:00 PM 71.6 °F 48.2 °F 43% 29.86 in - SW 2.2 mph - N/A   Clear
7:30 PM 69.8 °F 48.2 °F 46% 29.86 in - SSW 2.2 mph - N/A   Clear
8:00 PM 66.2 °F 50.0 °F 56% 29.86 in - South 2.2 mph - N/A   Clear
8:30 PM 64.4 °F 51.8 °F 64% 29.86 in 5.6 mi East 2.2 mph - N/A   Unknown
9:00 PM 59.0 °F 51.8 °F 77% 29.86 in - NNE 6.7 mph - N/A   Clear
9:30 PM 57.2 °F 51.8 °F 82% 29.86 in - NNE 4.5 mph - N/A   Clear
10:00 PM 59.0 °F 51.8 °F 77% 29.89 in 5.6 mi South 4.5 mph - N/A   Unknown
10:30 PM 59.0 °F 53.6 °F 82% 29.86 in - NNW 6.7 mph - N/A   Clear
11:00 PM 57.2 °F 53.6 °F 88% 29.86 in - NNW 6.7 mph - N/A   Clear
11:30 PM 55.4 °F 51.8 °F 88% 29.86 in - NNW 6.7 mph - N/A   Clear